Location: Berkeley
(37.8716°N, 122.2727°W)
Time: 16:17:26
(UTC-07:00)

Envisat - Pass Details

Date: 19 May 2026
Orbit: 761 x 763 km, 98.4° (Epoch: 7 June)

Event Time Altitude Azimuth Distance (km) Brightness Sun altitude
Rises 02:43:53 0° 28° (NNE) 3,228 7.5 -27.9°
Reaches altitude 10° 02:46:43 10° 44° (NE) 2,297 6.4 -27.6°
Maximum altitude 02:50:35 22° 94° (E) 1,622 4.9 -27.3°
Enters shadow 02:52:07 19° 119° (ESE) 1,742 4.8 -27.1°
